Location: Ellerstadt
(49.4644°N, 8.2615°E)
Time: 02:10:18
(UTC+00:00)

ISS - Pass Details

Date: 15 May 2021
Orbit: 417 x 422 km, 51.6° (Epoch: 15 June)

Event Time Altitude Azimuth Distance (km) Brightness Sun altitude
Rises 01:38:14 0° 289° (WNW) 2,375 -0.1 -15.4°
Reaches altitude 10° 01:40:20 10° 286° (WNW) 1,509 -1.1 -15.2°
Maximum altitude 01:43:42 64° 204° (SSW) 472 -3.8 -14.9°
Drops below altitude 10° 01:47:03 10° 123° (ESE) 1,505 -0.9 -14.6°
Sets 01:49:09 0° 120° (ESE) 2,368 0.1 -14.4°
